DW4238 Weather Reports


time (UTC)temp
C
wind
direction
speed
KPH
gust
KPH
rain 1hr
cm
rain 24hr
cm
rain mn
cm
humidity
%
barometer
mb
20260901024118 30 153 8.0 12.9 0.00 0.00 0.00 65 1013.4
20260901023631 30 150 8.0 12.9 0.00 0.00 0.00 64 1013.2
20260901023052 30 148 6.4 14.5 0.00 0.00 0.00 65 1013.3
20260901022603 31 146 9.7 14.5 0.00 0.00 0.00 64 1013.1
20260901021627 31 160 8.0 12.9 0.00 0.00 0.00 64 1012.9
20260901021119 31 146 8.0 12.9 0.00 0.00 0.00 64 1013.0
20260901020142 31 148 6.4 16.1 0.00 0.00 0.00 64 1012.7
20260901015633 31 142 6.4 16.1 0.00 0.00 0.00 64 1012.8
20260901015136 31 147 9.7 17.7 0.00 0.00 0.00 64 1012.8
20260901014601 31 142 11.3 17.7 0.00 0.00 0.00 64 1012.8
20260901014051 31 142 8.0 14.5 0.00 0.00 0.00 64 1012.8
20260901013113 32 135 4.8 12.9 0.00 0.00 0.00 63 1012.8
20260901012622 32 132 8.0 16.1 0.00 0.00 0.00 63 1012.8
20260901012134 32 135 8.0 20.9 0.00 0.00 0.00 63 1012.8
20260901011602 32 150 9.7 20.9 0.00 0.00 0.00 62 1012.7
20260901011107 32 149 12.9 22.5 0.00 0.00 0.00 62 1012.6
20260901010111 32 140 16.1 24.1 0.00 0.00 0.00 61 1012.5
20260901005614 33 129 14.5 22.5 0.00 0.00 0.00 60 1012.5
20260901005125 33 146 12.9 22.5 0.00 0.00 0.00 59 1012.5
20260901004545 33 150 9.7 25.7 0.00 0.00 0.00 57 1012.5
20260901004102 33 163 11.3 20.9 0.00 0.00 0.00 55 1012.3
20260901003123 34 148 11.3 17.7 0.00 0.00 0.00 51 1012.4
20260901002635 35 149 9.7 17.7 0.00 0.00 0.00 50 1012.4
20260901002134 35 136 9.7 17.7 0.00 0.00 0.00 50 1012.3
20260901001602 35 164 8.0 16.1 0.00 0.00 0.00 49 1012.3
20260901001053 35 150 8.0 16.1 0.00 0.00 0.00 48 1012.3
20260901000114 35 170 9.7 12.9 0.00 0.00 0.00 47 1012.3
20260831235556 35 148 6.4 12.9 0.00 0.00 0.00 47 1012.3
20260831234630 35 141 3.2 14.5 0.00 0.00 0.00 47 1012.3
20260831234136 35 142 6.4 16.1 0.00 0.00 0.00 46 1012.2
20260831233627 35 150 6.4 14.5 0.00 0.00 0.00 46 1012.2
20260831232549 36 190 4.8 9.7 0.00 0.00 0.00 45 1012.2
20260831231611 36 153 11.3 14.5 0.00 0.00 0.00 44 1012.3
20260831231103 36 172 3.2 17.7 0.00 0.00 0.00 45 1012.2
20260831230127 36 165 11.3 22.5 0.00 0.00 0.00 45 1012.3
20260831225542 36 174 6.4 22.5 0.00 0.00 0.00 46 1012.4
20260831225155 36 150 8.0 16.1 0.00 0.00 0.00 46 1012.3
20260831224555 36 178 6.4 14.5 0.00 0.00 0.00 45 1012.3
20260831224108 36 99 4.8 14.5 0.00 0.00 0.00 46 1012.3
20260831223126 36 121 9.7 16.1 0.00 0.00 0.00 47 1012.4
20260831222638 36 159 12.9 19.3 0.00 0.00 0.00 47 1012.4
20260831222118 36 159 4.8 16.1 0.00 0.00 0.00 47 1012.5
20260831221545 36 178 8.0 16.1 0.00 0.00 0.00 48 1012.6
20260831221054 35 136 8.0 11.3 0.00 0.00 0.00 47 1012.5
20260831220606 35 140 6.4 14.5 0.00 0.00 0.00 48 1012.6
20260831220132 35 180 9.7 14.5 0.00 0.00 0.00 47 1012.6
20260831215539 35 151 11.3 17.7 0.00 0.00 0.00 47 1012.6
20260831215051 36 143 11.3 17.7 0.00 0.00 0.00 47 1012.6
20260831214633 36 89 9.7 14.5 0.00 0.00 0.00 46 1012.7
20260831214145 36 123 4.8 17.7 0.00 0.00 0.00 47 1012.7
20260831213636 36 117 8.0 17.7 0.00 0.00 0.00 47 1012.8
20260831213056 36 130 8.0 16.1 0.00 0.00 0.00 47 1012.8
20260831212541 36 204 14.5 16.1 0.00 0.00 0.00 46 1012.8
20260831211610 36 163 8.0 19.3 0.00 0.00 0.00 46 1012.9
20260831211114 36 167 8.0 22.5 0.00 0.00 0.00 46 1012.9
20260831210125 36 257 6.4 11.3 0.00 0.00 0.00 47 1013.0
20260831205631 36 163 3.2 14.5 0.00 0.00 0.00 47 1013.1
20260831205114 36 124 8.0 24.1 0.00 0.00 0.00 45 1013.3
20260831204539 36 182 11.3 24.1 0.00 0.00 0.00 44 1013.3
20260831204051 36 142 11.3 17.7 0.00 0.00 0.00 45 1013.4
20260831203113 36 142 9.7 16.1 0.00 0.00 0.00 46 1013.6
20260831202625 36 173 4.8 14.5 0.00 0.00 0.00 47 1013.6
20260831202129 35 198 6.4 16.1 0.00 0.00 0.00 47 1013.7
20260831201601 35 113 3.2 9.7 0.00 0.00 0.00 48 1013.8
20260831201113 35 90 4.8 17.7 0.00 0.00 0.00 48 1014.0
20260831200614 35 123 9.7 25.7 0.00 0.00 0.00 47 1014.0
20260831200046 35 148 14.5 25.7 0.00 0.00 0.00 48 1014.1
20260831195558 35 92 4.8 19.3 0.00 0.00 0.00 50 1014.1
20260831194621 35 78 9.7 17.7 0.00 0.00 0.00 50 1014.3
20260831194134 35 92 4.8 19.3 0.00 0.00 0.00 52 1014.4
20260831193638 35 161 3.2 14.5 0.00 0.00 0.00 52 1014.4
20260831192543 35 98 11.3 16.1 0.00 0.00 0.00 51 1014.6
20260831191545 35 180 8.0 19.3 0.00 0.00 0.00 52 1014.7
20260831191056 35 130 11.3 19.3 0.00 0.00 0.00 54 1014.8
20260831190115 34 128 8.0 16.1 0.00 0.00 0.00 54 1014.8
20260831185623 34 76 6.4 17.7 0.00 0.00 0.00 54 1014.9
20260831185128 34 168 9.7 17.7 0.00 0.00 0.00 54 1014.9
20260831184558 34 181 1.6 16.1 0.00 0.00 0.00 53 1015.0
20260831184110 34 171 11.3 16.1 0.00 0.00 0.00 53 1015.1
20260831183609 34 99 4.8 14.5 0.00 0.00 0.00 55 1015.1
20260831183039 34 134 3.2 16.1 0.00 0.00 0.00 55 1015.2
20260831182646 34 146 8.0 16.1 0.00 0.00 0.00 55 1015.2
20260831182134 34 142 3.2 12.9 0.00 0.00 0.00 56 1015.4
20260831181601 34 148 4.8 17.7 0.00 0.00 0.00 56 1015.4
20260831181106 34 132 8.0 14.5 0.00 0.00 0.00 57 1015.4
20260831180128 33 150 8.0 17.7 0.00 0.00 0.00 55 1015.6
20260831175543 33 172 3.2 19.3 0.00 0.00 0.00 56 1015.6
20260831174606 33 88 8.0 20.9 0.00 0.00 0.00 59 1015.8
20260831174058 33 113 6.4 20.9 0.00 0.00 0.00 58 1015.8
20260831173119 33 74 8.0 17.7 0.00 0.00 0.00 60 1015.8
20260831172630 33 26 4.8 14.5 0.00 0.00 0.00 61 1015.9
20260831172136 32 99 4.8 14.5 0.00 0.00 0.00 62 1015.9
20260831171603 32 156 3.2 14.5 0.00 0.00 0.00 63 1016.0
20260831171119 32 115 4.8 11.3 0.00 0.00 0.00 63 1016.0
20260831170120 32 157 3.2 14.5 0.00 0.00 0.00 64 1016.2
20260831165633 32 76 3.2 11.3 0.00 0.00 0.00 65 1016.2
20260831165133 32 189 1.6 11.3 0.00 0.00 0.00 64 1016.3
20260831164544 32 131 3.2 12.9 0.00 0.00 0.00 65 1016.3
20260831164048 32 80 6.4 14.5 0.00 0.00 0.00 65 1016.4
20260831163118 32 138 3.2 12.9 0.00 0.00 0.00 69 1016.4
20260831162613 31 139 6.4 14.5 0.00 0.00 0.00 68 1016.4
20260831161615 31 123 4.8 19.3 0.00 0.00 0.00 68 1016.3
20260831161127 31 144 6.4 19.3 0.00 0.00 0.00 69 1016.3
20260831160147 31 153 3.2 16.1 0.00 0.00 0.00 70 1016.4
20260831155633 31 221 4.8 16.1 0.00 0.00 0.00 70 1016.4
20260831155131 31 279 6.4 12.9 0.00 0.00 0.00 74 1016.3
20260831154541 30 205 8.0 12.9 0.00 0.00 0.00 74 1016.3
20260831154046 30 224 0.0 12.9 0.00 0.00 0.00 75 1016.3
20260831153114 30 241 6.4 12.9 0.00 0.00 0.00 76 1016.2
20260831152620 30 221 6.4 11.3 0.00 0.00 0.00 79 1016.2
20260831152136 30 227 4.8 12.9 0.00 0.00 0.00 79 1016.1
20260831151603 29 267 6.4 12.9 0.00 0.00 0.00 81 1016.1
20260831151108 29 245 8.0 12.9 0.00 0.00 0.00 82 1016.1
20260831150131 28 292 4.8 11.3 0.00 0.00 0.00 83 1016.2
20260831145543 28 248 4.8 11.3 0.00 0.00 0.00 84 1016.1
20260831144604 28 192 8.0 11.3 0.00 0.00 0.00 85 1016.2
20260831144118 28 201 0.0 11.3 0.00 0.00 0.00 85 1016.3
20260831143117 28 218 1.6 8.0 0.00 0.00 0.00 87 1016.2
20260831142629 28 231 1.6 6.4 0.00 0.00 0.00 88 1016.1
20260831142134 27 202 1.6 4.8 0.00 0.00 0.00 89 1016.0
20260831141602 27 202 0.0 8.0 0.00 0.00 0.00 89 1016.1
20260831141054 27 202 3.2 8.0 0.00 0.00 0.00 89 1016.0
20260831140054 27 158 0.0 0.0 0.00 0.00 0.00 90 1016.0
20260831135558 27 154 0.0 0.0 0.00 0.00 0.00 90 1015.9
20260831134630 26 153 0.0 0.0 0.00 0.00 0.00 91 1015.8
20260831134113 26 153 0.0 0.0 0.00 0.00 0.00 91 1015.7
20260831133625 26 153 0.0 0.0 0.00 0.00 0.00 92 1015.6
20260831132547 26 153 0.0 0.0 0.00 0.00 0.00 92 1015.5
20260831131610 25 153 0.0 0.0 0.00 0.00 0.00 92 1015.4
20260831131122 25 153 0.0 0.0 0.00 0.00 0.00 93 1015.4
20260831130627 25 152 0.0 0.0 0.00 0.00 0.00 93 1015.3
20260831130059 25 150 0.0 0.0 0.00 0.00 0.00 92 1015.3
20260831125610 25 150 0.0 0.0 0.00 0.00 0.00 92 1015.3
20260831124608 24 150 0.0 0.0 0.00 0.00 0.00 92 1015.3
20260831124114 25 150 0.0 0.0 0.00 0.00 0.00 92 1015.2
20260831123121 24 150 0.0 0.0 0.00 0.00 0.00 93 1015.1
20260831122626 24 151 0.0 0.0 0.00 0.00 0.00 93 1015.0
20260831122116 24 151 0.0 0.0 0.00 0.00 0.00 93 1015.0
20260831121547 24 151 0.0 0.0 0.00 0.00 0.00 93 1014.9
20260831121148 25 151 0.0 0.0 0.00 0.00 0.00 93 1014.8
20260831120543 24 152 0.0 0.0 0.00 0.00 0.00 92 1014.8
20260831120048 24 152 0.0 0.0 0.00 0.00 0.00 92 1014.8
20260831115558 24 152 0.0 0.0 0.00 0.00 0.00 92 1014.8
20260831114621 25 152 0.0 0.0 0.00 0.00 0.00 92 1014.7
20260831114133 25 152 0.0 0.0 0.00 0.00 0.00 92 1014.7
20260831113614 25 152 0.0 0.0 0.00 0.00 0.00 92 1014.7
20260831113042 25 152 0.0 0.0 0.00 0.00 0.00 91 1014.7
20260831112547 25 152 0.0 0.0 0.00 0.00 0.00 91 1014.7
20260831111621 25 152 0.0 0.0 0.00 0.00 0.00 91 1014.6
20260831111125 25 152 0.0 0.0 0.00 0.00 0.00 92 1014.6
20260831110631 25 151 0.0 0.0 0.00 0.00 0.00 92 1014.6
20260831110041 25 151 0.0 0.0 0.00 0.00 0.00 92 1014.6
20260831105545 25 151 0.0 0.0 0.00 0.00 0.00 92 1014.6
20260831105155 25 151 0.0 0.0 0.00 0.00 0.00 92 1014.6
20260831104554 25 151 0.0 0.0 0.00 0.00 0.00 92 1014.6
20260831104107 25 151 0.0 0.0 0.00 0.00 0.00 92 1014.6
20260831103617 25 151 0.0 0.0 0.00 0.00 0.00 92 1014.5
20260831103041 25 151 0.0 0.0 0.00 0.00 0.00 92 1014.5
20260831102650 25 151 0.0 0.0 0.00 0.00 0.00 92 1014.5
20260831102138 24 151 0.0 0.0 0.00 0.00 0.00 92 1014.5
20260831101602 24 151 0.0 0.0 0.00 0.00 0.00 92 1014.6
20260831101115 24 151 0.0 0.0 0.00 0.00 0.00 91 1014.5
20260831100054 24 151 0.0 0.0 0.00 0.00 0.00 91 1014.5
20260831095606 24 151 0.0 0.0 0.00 0.00 0.00 91 1014.5
20260831094609 24 150 0.0 0.0 0.00 0.00 0.00 91 1014.5
20260831094053 24 150 0.0 3.2 0.00 0.00 0.00 91 1014.5
20260831093605 25 150 0.0 8.0 0.00 0.00 0.00 91 1014.5
20260831093131 25 150 3.2 8.0 0.00 0.00 0.00 90 1014.5
20260831092644 25 150 1.6 9.7 0.00 0.00 0.00 89 1014.6
20260831092127 25 150 4.8 9.7 0.00 0.00 0.00 89 1014.6
20260831091557 25 175 1.6 4.8 0.00 0.00 0.00 89 1014.5
20260831091107 25 180 0.0 0.0 0.00 0.00 0.00 89 1014.4
20260831090109 25 180 0.0 0.0 0.00 0.00 0.00 89 1014.5
20260831085552 25 180 0.0 0.0 0.00 0.00 0.00 89 1014.5
20260831084613 25 180 0.0 0.0 0.00 0.00 0.00 89 1014.5
20260831084105 25 181 0.0 0.0 0.00 0.00 0.00 88 1014.5
20260831083114 25 181 0.0 0.0 0.00 0.00 0.00 88 1014.5
20260831082629 25 181 0.0 0.0 0.00 0.00 0.00 88 1014.5
20260831082134 25 181 0.0 0.0 0.00 0.00 0.00 88 1014.6
20260831081601 25 181 0.0 0.0 0.00 0.00 0.00 88 1014.7
20260831081112 25 181 0.0 0.0 0.00 0.00 0.00 88 1014.7
20260831080132 25 181 0.0 0.0 0.00 0.00 0.00 88 1014.7
20260831075637 25 182 0.0 0.0 0.00 0.00 0.00 88 1014.7
20260831075123 25 182 0.0 0.0 0.00 0.00 0.00 88 1014.7
20260831074551 25 182 0.0 3.2 0.00 0.00 0.00 88 1014.7
20260831074059 25 182 0.0 4.8 0.00 0.00 0.00 87 1014.6
20260831073121 25 182 1.6 4.8 0.00 0.00 0.00 87 1014.6
20260831072611 26 182 0.0 3.2 0.00 0.00 0.00 87 1014.6
20260831071634 26 183 0.0 0.0 0.00 0.00 0.00 86 1014.7
20260831071146 26 183 0.0 0.0 0.00 0.00 0.00 85 1014.8
20260831070638 26 183 0.0 0.0 0.00 0.00 0.00 85 1014.9
20260831070050 26 183 0.0 0.0 0.00 0.00 0.00 85 1014.8
20260831065620 26 183 0.0 0.0 0.00 0.00 0.00 85 1014.9
20260831065049 26 184 0.0 0.0 0.00 0.00 0.00 85 1014.9
20260831064542 26 184 0.0 4.8 0.00 0.00 0.00 85 1014.9
20260831064120 26 184 1.6 4.8 0.00 0.00 0.00 85 1014.9
20260831063549 26 184 1.6 4.8 0.00 0.00 0.00 84 1014.9
20260831063041 26 184 1.6 4.8 0.00 0.00 0.00 84 1014.9
20260831062550 26 184 3.2 4.8 0.00 0.00 0.00 84 1014.9
20260831062101 26 183 1.6 6.4 0.00 0.00 0.00 84 1014.9
20260831061541 26 183 1.6 6.4 0.00 0.00 0.00 84 1014.8
20260831061043 26 184 3.2 6.4 0.00 0.00 0.00 83 1014.9
20260831060620 26 184 3.2 8.0 0.00 0.00 0.00 83 1014.9
20260831060057 26 169 4.8 9.7 0.00 0.00 0.00 83 1014.8
20260831055540 26 180 4.8 8.0 0.00 0.00 0.00 83 1014.8
20260831055049 27 181 4.8 8.0 0.00 0.00 0.00 82 1014.8
20260831054553 27 174 3.2 12.9 0.00 0.00 0.00 82 1014.8
20260831054103 27 172 6.4 12.9 0.00 0.00 0.00 82 1014.7
20260831053547 27 170 6.4 14.5 0.00 0.00 0.00 82 1014.7
20260831053048 27 166 6.4 14.5 0.00 0.00 0.00 81 1014.6
20260831052557 27 150 9.7 14.5 0.00 0.00 0.00 81 1014.6
20260831052059 27 145 9.7 16.1 0.00 0.00 0.00 81 1014.6
20260831051559 27 173 8.0 16.1 0.00 0.00 0.00 81 1014.6
20260831051042 27 150 11.3 16.1 0.00 0.00 0.00 80 1014.6
20260831050554 27 150 9.7 14.5 0.00 0.00 0.00 80 1014.5
20260831045540 27 179 8.0 12.9 0.00 0.00 0.00 79 1014.4
20260831045053 27 171 8.0 12.9 0.00 0.00 0.00 79 1014.4
20260831044658 28 180 8.0 12.9 0.00 0.00 0.00 79 1014.5
20260831044047 28 171 9.7 12.9 0.00 0.00 0.00 78 1014.4
20260831043109 28 179 6.4 14.5 0.00 0.00 0.00 78 1014.3
20260831042624 28 161 8.0 12.9 0.00 0.00 0.00 77 1014.4
20260831041625 28 170 8.0 12.9 0.00 0.00 0.00 77 1014.3
20260831041116 28 181 8.0 16.1 0.00 0.00 0.00 76 1014.3
20260831040613 28 190 11.3 14.5 0.00 0.00 0.00 76 1014.4
20260831040045 28 184 8.0 14.5 0.00 0.00 0.00 76 1014.3
20260831035151 28 178 11.3 24.1 0.00 0.00 0.00 75 1014.1
20260831034557 29 171 12.9 24.1 0.00 0.00 0.00 75 1014.1
20260831034101 29 176 11.3 19.3 0.00 0.00 0.00 74 1014.0
20260831033613 29 156 11.3 22.5 0.00 0.00 0.00 74 1013.9
20260831033042 29 161 12.9 22.5 0.00 0.00 0.00 74 1013.8
20260831032544 29 163 12.9 17.7 0.00 0.00 0.00 74 1013.7
20260831031606 30 164 11.3 17.7 0.00 0.00 0.00 73 1013.7
20260831031118 30 174 11.3 17.7 0.00 0.00 0.00 72 1013.6
20260831030628 30 153 11.3 22.5 0.00 0.00 0.00 72 1013.5
20260831030050 30 167 12.9 22.5 0.00 0.00 0.00 71 1013.6
20260831025602 30 190 9.7 17.7 0.00 0.00 0.00 71 1013.6
20260831024619 30 164 9.7 14.5 0.00 0.00 0.00 71 1013.5